Simultaneous Nadir Overpasses (SNOs) Predictions

Prediction of SNOs between AQUA and METOP-B Satellite Orbit:

Table of predicted SNOs for the next 14.0 days since TLE Epoch: 11/7/2020
Index Date (AQUA) Time (AQUA) Lat,Lon (AQUA) SZA (AQUA ) Date (METOP-B) Time (METOP-B) Lat,Lon (METOP-B) SZA (METOP-B ) Distance(km) Time Diff (sec)
1 11/09/2020 23:45:09 73.76, 178.07 90.88 11/09/2020 23:44:29 73.78, 178.02 90.91 2.54 40
2 11/10/2020 00:34:36 -73.83, -14.44 89.04 11/10/2020 00:35:10 -73.83, -14.53 89.04 2.92 34
3 11/12/2020 19:19:24 73.78,-115.53 91.67 11/12/2020 19:18:52 73.80,-115.53 91.69 2.11 32
4 11/12/2020 20:08:51 -73.85, 51.96 88.25 11/12/2020 20:09:33 -73.85, 51.92 88.26 1.34 42
5 11/15/2020 14:53:39 73.81, -49.15 92.43 11/15/2020 14:53:15 73.82, -49.08 92.44 2.38 24
6 11/15/2020 15:43:06 -73.88, 118.33 87.50 11/15/2020 15:43:56 -73.86, 118.36 87.51 2.06 50
7 11/18/2020 09:38:17 -73.40,-149.47 87.32 11/18/2020 09:37:07 -73.35,-151.09 87.35 51.62 70
8 11/18/2020 10:27:52 73.79, 17.32 93.10 11/18/2020 10:27:38 73.78, 17.24 93.09 2.80 14
9 11/18/2020 11:17:19 -73.87,-175.20 86.83 11/18/2020 11:18:18 -73.88,-175.20 86.82 1.08 59
